• En Estados Unidos
  • Lista de países
  • Para 7 días
  • Temperatura del agua
  • Mapa Satelital
  • El tiempo en el mapa
  • Informadores
  • user-avatar
    Iniciar sesión

    Tiempo cada hora Malanje

    Hoy, 24 Junio, Domingo

    Tiempo Temperatura Precipitaciones Viento Presión Humedad
    00:00 +20°C° 0 mm 1 mps 666 mmHg 39%
    01:00 +19°C° 0 mm 1 mps 666 mmHg 40%
    02:00 +19°C° 0 mm 1 mps 665 mmHg 41%
    03:00 +18°C° 0 mm 1 mps 665 mmHg 41%
    04:00 +18°C° 0 mm 1 mps 665 mmHg 42%
    05:00 +18°C° 0 mm 1 mps 665 mmHg 41%
    06:00 +18°C° 0 mm 1 mps 666 mmHg 41%
    07:00 +18°C° 0 mm 1 mps 666 mmHg 40%
    08:00 +20°C° 0 mm 2 mps 667 mmHg 35%
    09:00 +24°C° 0 mm 3 mps 668 mmHg 30%
    10:00 +27°C° 0 mm 3 mps 669 mmHg 24%
    11:00 +29°C° 0 mm 3 mps 668 mmHg 23%
    12:00 +30°C° 0 mm 3 mps 668 mmHg 22%
    13:00 +32°C° 0 mm 2 mps 668 mmHg 20%
    14:00 +32°C° 0 mm 2 mps 667 mmHg 21%
    15:00 +31°C° 0 mm 2 mps 666 mmHg 21%
    16:00 +31°C° 0 mm 1 mps 666 mmHg 21%
    17:00 +29°C° 0 mm 1 mps 666 mmHg 25%
    18:00 +26°C° 0 mm 1 mps 665 mmHg 29%
    19:00 +24°C° 0 mm 1 mps 665 mmHg 34%
    20:00 +23°C° 0 mm 1 mps 665 mmHg 35%
    21:00 +23°C° 0 mm 1 mps 666 mmHg 36%
    22:00 +22°C° 0 mm 1 mps 666 mmHg 38%
    23:00 +21°C° 0 mm 1 mps 666 mmHg 42%

    Mañana, 25 Junio, Lunes

    Tiempo Temperatura Precipitaciones Viento Presión Humedad
    00:00 +21°C° 0 mm 1 mps 666 mmHg 47%
    01:00 +20°C° 0 mm 1 mps 666 mmHg 51%
    02:00 +19°C° 0 mm 1 mps 665 mmHg 60%
    03:00 +18°C° 0 mm 1 mps 665 mmHg 69%
    04:00 +16°C° 0 mm 1 mps 664 mmHg 78%
    05:00 +16°C° 0 mm 1 mps 665 mmHg 77%
    06:00 +18°C° 0 mm 1 mps 665 mmHg 77%
    07:00 +18°C° 0 mm 1 mps 666 mmHg 76%
    08:00 +22°C° 0 mm 1 mps 667 mmHg 61%
    09:00 +25°C° 0 mm 1 mps 668 mmHg 47%
    10:00 +29°C° 0 mm 1 mps 669 mmHg 32%
    11:00 +31°C° 0 mm 1 mps 668 mmHg 28%
    12:00 +32°C° 0 mm 1 mps 668 mmHg 24%
    13:00 +34°C° 0 mm 1 mps 668 mmHg 20%
    14:00 +34°C° 0 mm 1 mps 667 mmHg 20%
    15:00 +33°C° 0 mm 1 mps 666 mmHg 20%
    16:00 +32°C° 0 mm 1 mps 666 mmHg 20%
    17:00 +30°C° 0 mm 1 mps 666 mmHg 24%
    18:00 +27°C° 0 mm 1 mps 665 mmHg 27%
    19:00 +25°C° 0 mm 1 mps 665 mmHg 31%
    20:00 +22°C° 0 mm 0 mps 666 mmHg 34%
    21:00 +21°C° 0 mm 0 mps 666 mmHg 36%
    22:00 +20°C° 0 mm 0 mps 666 mmHg 39%
    23:00 +22°C° 0 mm 1 mps 666 mmHg 42%

    Pasado mañana, 26 Junio, Martes

    Tiempo Temperatura Precipitaciones Viento Presión Humedad
    00:00 +21°C° 0 mm 1 mps 666 mmHg 45%
    01:00 +20°C° 0 mm 1 mps 666 mmHg 48%
    02:00 +20°C° 0 mm 1 mps 665 mmHg 53%
    03:00 +19°C° 0 mm 1 mps 665 mmHg 58%
    04:00 +18°C° 0 mm 1 mps 664 mmHg 63%
    05:00 +18°C° 0 mm 1 mps 665 mmHg 63%
    06:00 +19°C° 0 mm 1 mps 665 mmHg 62%
    07:00 +19°C° 0 mm 1 mps 665 mmHg 62%
    08:00 +22°C° 0 mm 1 mps 666 mmHg 51%
    09:00 +26°C° 0 mm 2 mps 667 mmHg 39%
    10:00 +30°C° 0 mm 2 mps 668 mmHg 28%
    11:00 +31°C° 0 mm 2 mps 668 mmHg 25%
    12:00 +32°C° 0 mm 2 mps 667 mmHg 21%
    13:00 +34°C° 0 mm 2 mps 667 mmHg 18%
    14:00 +34°C° 0 mm 2 mps 666 mmHg 17%
    15:00 +34°C° 0 mm 2 mps 666 mmHg 17%
    16:00 +33°C° 0 mm 1 mps 665 mmHg 17%
    17:00 +30°C° 0 mm 1 mps 665 mmHg 20%
    18:00 +27°C° 0 mm 1 mps 665 mmHg 23%
    19:00 +25°C° 0 mm 1 mps 665 mmHg 27%
    20:00 +24°C° 0 mm 1 mps 665 mmHg 29%
    21:00 +23°C° 0 mm 1 mps 666 mmHg 30%
    22:00 +23°C° 0 mm 1 mps 666 mmHg 32%
    23:00 +22°C° 0 mm 1 mps 666 mmHg 36%

    27 Junio, Miércoles

    Tiempo Temperatura Precipitaciones Viento Presión Humedad
    00:00 +21°C° 0 mm 1 mps 665 mmHg 40%
    01:00 +20°C° 0 mm 1 mps 665 mmHg 44%
    02:00 +20°C° 0 mm 1 mps 665 mmHg 47%
    03:00 +19°C° 0 mm 1 mps 664 mmHg 51%
    04:00 +18°C° 0 mm 1 mps 664 mmHg 54%
    05:00 +19°C° 0 mm 1 mps 665 mmHg 52%
    06:00 +19°C° 0 mm 1 mps 665 mmHg 50%
    07:00 +19°C° 0 mm 1 mps 666 mmHg 48%
    08:00 +22°C° 0 mm 1 mps 667 mmHg 39%
    09:00 +26°C° 0 mm 2 mps 667 mmHg 31%
    10:00 +29°C° 0 mm 3 mps 668 mmHg 22%
    11:00 +31°C° 0 mm 3 mps 668 mmHg 20%
    12:00 +32°C° 0 mm 2 mps 667 mmHg 18%
    13:00 +35°C° 0 mm 2 mps 666 mmHg 16%
    14:00 +35°C° 0 mm 2 mps 666 mmHg 16%
    15:00 +34°C° 0 mm 1 mps 665 mmHg 16%
    16:00 +33°C° 0 mm 1 mps 665 mmHg 15%
    17:00 +31°C° 0 mm 1 mps 665 mmHg 18%
    18:00 +26°C° 0 mm 0 mps 665 mmHg 21%
    19:00 +23°C° 0 mm 0 mps 665 mmHg 24%
    20:00 +22°C° 0 mm 0 mps 665 mmHg 27%
    21:00 +21°C° 0 mm 0 mps 665 mmHg 29%
    22:00 +22°C° 0 mm 1 mps 666 mmHg 32%
    23:00 +22°C° 0 mm 1 mps 665 mmHg 39%

    28 Junio, Jueves

    Tiempo Temperatura Precipitaciones Viento Presión Humedad
    00:00 +21°C° 0 mm 1 mps 665 mmHg 47%
    01:00 +20°C° 0 mm 1 mps 665 mmHg 55%
    02:00 +19°C° 0 mm 1 mps 665 mmHg 59%
    03:00 +18°C° 0 mm 1 mps 664 mmHg 62%
    04:00 +18°C° 0 mm 1 mps 664 mmHg 65%
    05:00 +18°C° 0 mm 1 mps 665 mmHg 61%
    06:00 +18°C° 0 mm 1 mps 665 mmHg 57%
    07:00 +18°C° 0 mm 1 mps 666 mmHg 52%
    08:00 +21°C° 0 mm 2 mps 667 mmHg 42%
    09:00 +25°C° 0 mm 2 mps 667 mmHg 33%
    10:00 +29°C° 0 mm 3 mps 668 mmHg 23%
    11:00 +30°C° 0 mm 3 mps 668 mmHg 20%
    12:00 +33°C° 0 mm 3 mps 667 mmHg 18%
    13:00 +34°C° 0 mm 3 mps 667 mmHg 16%
    14:00 +34°C° 0 mm 2 mps 666 mmHg 16%
    15:00 +34°C° 0 mm 2 mps 666 mmHg 16%
    16:00 +34°C° 0 mm 2 mps 665 mmHg 16%
    17:00 +30°C° 0 mm 1 mps 665 mmHg 20%
    18:00 +28°C° 0 mm 1 mps 665 mmHg 23%
    19:00 +25°C° 0 mm 1 mps 665 mmHg 26%
    20:00 +24°C° 0 mm 1 mps 665 mmHg 28%
    21:00 +24°C° 0 mm 1 mps 665 mmHg 29%
    22:00 +23°C° 0 mm 1 mps 666 mmHg 30%
    23:00 +22°C° 0 mm 1 mps 665 mmHg 38%

    29 Junio, Viernes

    Tiempo Temperatura Precipitaciones Viento Presión Humedad
    00:00 +21°C° 0 mm 1 mps 665 mmHg 45%
    01:00 +19°C° 0 mm 2 mps 664 mmHg 53%
    02:00 +19°C° 0 mm 1 mps 664 mmHg 59%
    03:00 +19°C° 0 mm 1 mps 664 mmHg 66%
    04:00 +18°C° 0 mm 1 mps 664 mmHg 72%
    05:00 +18°C° 0 mm 1 mps 664 mmHg 70%
    06:00 +18°C° 0 mm 1 mps 665 mmHg 68%
    07:00 +18°C° 0 mm 1 mps 665 mmHg 65%
    08:00 +21°C° 0 mm 1 mps 666 mmHg 52%
    09:00 +25°C° 0 mm 2 mps 667 mmHg 38%
    10:00 +28°C° 0 mm 2 mps 667 mmHg 25%
    11:00 +29°C° 0 mm 2 mps 667 mmHg 22%
    12:00 +31°C° 0 mm 2 mps 667 mmHg 20%
    13:00 +34°C° 0 mm 2 mps 666 mmHg 17%
    14:00 +32°C° 0 mm 2 mps 666 mmHg 17%
    15:00 +32°C° 0 mm 2 mps 665 mmHg 18%
    16:00 +32°C° 0 mm 1 mps 665 mmHg 18%
    17:00 +30°C° 0 mm 1 mps 665 mmHg 21%
    18:00 +27°C° 0 mm 1 mps 665 mmHg 25%
    19:00 +25°C° 0 mm 1 mps 665 mmHg 28%
    20:00 +24°C° 0 mm 1 mps 665 mmHg 31%
    21:00 +23°C° 0 mm 1 mps 665 mmHg 33%
    22:00 +23°C° 0 mm 1 mps 666 mmHg 36%
    23:00 +22°C° 0 mm 1 mps 665 mmHg 45%
    Mostrar más